Regional Weather Roundup
Issued by NWS Boston, MA

Current Version | Previous Version | Text Only | Print | Product List | Glossary On
Versions: 1 2 3 4 5 6 7 8 9 10 11 12 13 14 15 16 17 18 19 20 21 22 23 24 25 26 27 28 29 30 31 32 33 34 35 36 37 38 39 40 41 42 43 44 45 46 47 48 49 50
000
ASUS41 KBOX 010110
RWRBOX

REGIONAL WEATHER ROUNDUP
NATIONAL WEATHER SERVICE TAUNTON MA
900 PM EDT THU JUL 31 2014

NOTE:  "FAIR" INDICATES FEW OR NO CLOUDS BELOW 12,000 FEET WITH NO
SIGNIFICANT WEATHER AND/OR OBSTRUCTIONS TO VISIBILITY.  THE FOLLOWING
OBSERVATION LOCATIONS DO NOT REPORT PRESENT WEATHER...PROVINCETOWN...
SMITHFIELD...BLOCK ISLAND...KEENE...AND OXFORD.

MAZALL-010200-
EASTERN MASSACHUSETTS

CITY           SKY/WX    TMP DP  RH WIND       PRES   REMARKS
BOSTON         PTCLDY    71  57  61 S13       30.13R
BEVERLY        MOCLDY    72  55  55 S8        30.12R
LAWRENCE       CLOUDY    74  61  63 VRB3      30.14R
BEDFORD        MOCLDY    72  58  61 S8        30.12R
BLUE HILL        N/A     69  59  70 S14G20    30.15R
NORWOOD        CLEAR     68  59  73 S5        30.14R
MARSHFIELD     CLEAR     72  61  68 S6        30.17R
PLYMOUTH       CLEAR     69  62  78 S8        30.16R
TAUNTON        CLEAR     68  61  78 S5        30.16R
NEW BEDFORD    CLEAR     68  64  87 CALM      30.16R
$$

MAZALL-010200-
CAPE COD AND THE ISLANDS

CITY           SKY/WX    TMP DP  RH WIND       PRES   REMARKS
FALMOUTH       CLEAR     68  63  83 SW6       30.17R
HYANNIS        CLEAR     71  61  70 SW10      30.16R
CHATHAM        CLEAR     69  65  86 SW6       30.18R
PROVINCETOWN   CLEAR     68  63  83 SW9       30.16R
NANTUCKET      PTCLDY    66  63  90 S7        30.18R
MARTHAS VNYRD  CLEAR     67  63  87 SW7       30.17R
$$

MAZALL-010200-
CENTRAL AND WESTERN MASSACHUSETTS

CITY           SKY/WX    TMP DP  RH WIND       PRES   REMARKS
WORCESTER      CLEAR     69  58  67 SW10      30.16R
FITCHBURG      MOCLDY    75  58  55 S8        30.14R
ORANGE         CLOUDY    68  64  87 NE7       30.14R
SPRINGFIELD    CLEAR     73  61  64 S10       30.12R
WESTFIELD      MOCLDY    73  60  63 SW5       30.12R
NORTH ADAMS    MOCLDY    61  61 100 CALM      30.13R FOG
PITTSFIELD     PTCLDY    66  60  81 W5        30.13R
$$

RIZALL-010200-
RHODE ISLAND

CITY           SKY/WX    TMP DP  RH WIND       PRES   REMARKS
PROVIDENCE     FAIR      70  62  76 S7        30.17R
NEWPORT        FAIR      70  64  81 S8        30.17R
BLOCK ISLAND   FAIR      70  63  78 SW10      30.17R
SMITHFIELD     FAIR      68  55  64 S5        30.16R
WESTERLY       FAIR      71  64  78 S6        30.17R
$$

CTZALL-010200-
CONNECTICUT

CITY           SKY/WX    TMP DP  RH WIND       PRES   REMARKS
BRADLEY INTL   MOCLDY    75  58  55 S10       30.11R
HARTFORD       PTCLDY    72  59  63 S9        30.13R
BRIDGEPORT     NOT AVBL
DANBURY        CLEAR     71  62  73 S6        30.15R
GROTON         CLEAR     69  65  86 S6        30.16R
NEW HAVEN      PTCLDY    75  63  66 S6        30.15R
CHESTER        FAIR      70  63  78 SW7       30.17R
MERIDEN        CLEAR     71  58  63 S7        30.14R
WILLIMANTIC    MOCLDY    72  61  68 S5        30.16R
$$

MEZ002-015-021-024-NHZ003-005-008-011-012-014-VTZ005-008-010200-
NORTHERN NEW ENGLAND

CITY           SKY/WX    TMP DP  RH WIND       PRES   REMARKS
PORTLAND ME    PTCLDY    66  60  81 S5        30.12R
BANGOR ME      MOCLDY    67  60  78 S9        30.15R
CONCORD NH     RAIN      65  64  97 S5        30.14R FOG
MANCHESTER NH  MOCLDY    67  64  90 SE5       30.11R
NASHUA NH      MOCLDY    71  62  73 CALM      30.14R
PORTSMOUTH NH  MOCLDY    69  65  86 CALM      30.12R
JAFFREY NH     MOCLDY    64  62  93 CALM      30.17R
KEENE NH       MOCLDY    64  55  72 CALM      30.14R
BURLINGTON VT  FAIR      66  61  84 SE3       30.07R
MT. WASHINGTON FOG       45  45 100 W28         N/A  VSB 0
$$

NYZ052-076-010200-
EASTERN NEW YORK

CITY           SKY/WX    TMP DP  RH WIND       PRES   REMARKS
ALBANY         FAIR      69  64  84 CALM      30.10R
NEW YORK CITY  MOCLDY    75  65  70 S10       30.12R
$$

ANZALL-010200-
MARINE OBSERVATIONS

STATION/POSITION TIME  TEMP    WIND        PRES    VSBY  WAVE
                       AIR SEA DIR/SP/G                  HT/PER
                 (UTC) (F)     (DEG/KT/KT) (MB)    (MI)  (FT/S)
BOSTON BUOY      NOT AVBL
BUZZARDS BAY     NOT AVBL
NANTUCKET SOUND  NOT AVBL
MASS BAY-STELLWA NOT AVBL
ISLE OF SHOALS   NOT AVBL
S OF BLOCK IS    NOT AVBL
$$

......................KEY.........................
  SKY/WX - SKY CONDITION/PRESENT WEATHER
  TMP    - TEMPERATURE IN FAHRENHEIT
  DWPT   - DEWPOINT IN FAHRENHEIT
  RH     - RELATIVE HUMIDITY IN PERCENT
  WIND   - DIRECTION AND SPEED IN MPH
  PRES   - MEAN SEA LEVEL PRESSURE IN INCHES OF HG
  WCI    - WIND CHILL INDEX
  VSB    - VISIBILITY IN MILES
  HX     - HEAT INDEX
  TC     - TEMPERATURE IN CELSIUS
  VRB    - VARIABLE WIND DIRECTION
  N/A    - NOT AVAILABLE


USA.gov is the U.S. government's official web portal to all federal, state and local government web resources and services.